Volver al catálogo

SL-16 DEB

ActivoLEO
NORAD 26075·DEBRIS·🇷🇺 Russia

Lanzado Feb 3, 2000 desde Baikonur Cosmodrome

Loading…

Próximos Pases (próximas 24 horas)

TLE

ActualizadoSource: Space-Track

Época: Sep 14, 2026, 06:02 UTC

1 26075U 00006E   26257.25179186  .00000099  00000-0  12744-3 0  9996
2 26075  71.0658 351.1992 0189071 194.5649 195.0375 13.76408325336183

Sigue SL-16 DEB en tiempo real con AllMySat

Download on the App Store